ORBCOMM FM16 [-]

Last updated on Fri Dec 29 2023 00:02:53 GMT+0000 (Coordinated Universal Time)

1 25417U 98046E 23362.05322607 .00001576 00000+0 59121-3 0 9996 2 25417 44.9932 196.4223 0004375 115.5295 244.6005 14.35519089327206
UTC large
Height (km)
Speed (km/s)
/
Latitude / Longitude
Inclination (degrees)
Orbital Period (minutes)
Azimuth
Elevation
Range (km)
Doppler Factor

Next 0 passes for location: London (51.5072 / 0.1276)

Sorry there are no passes over London.